Weather History for KSNL - February, 2012

Change the Weather History Date:

Saturday, February 11, 2012

  Actual Average (KTIK) Record (KTIK)
Temperature  
Mean Temperature 26 °F -  
Max Temperature 32 °F 50 °F 68 °F (1999)
Min Temperature 19 °F 31 °F 15 °F (2011)
Degree Days  
Heating Degree Days 40    
Moisture  
Dew Point 9 °F    
Average Humidity 52    
Maximum Humidity 63    
Minimum Humidity 32    
Precipitation  
Precipitation 0.00 in - - ()
Sea Level Pressure  
Sea Level Pressure 30.60 in    
Wind  
Wind Speed 13 mph (NNE)    
Max Wind Speed 20 mph    
Max Gust Speed 26 mph    
Visibility 10 miles    
Events      
Averages and records for this station are not official NWS values.
T = Trace of Precipitation, MM = Missing Value Source: NWS Daily Summary

Daily Weather History Graph

Daily Weather History Graph

Search for Another Location

Airport or City:

Trip Planner

Search our weather history database for the weather conditions in past years. The results will help you decide how hot, cold, wet, or windy it might be!

Date:

Astronomy

Feb. 11, 2012 Rise Set
Actual Time 7:18 AM CST 6:05 PM CST
Civil Twilight 6:52 AM CST 6:31 PM CST
Nautical Twilight 6:22 AM CST 7:01 PM CST
Astronomical Twilight 5:53 AM CST 7:31 PM CST
Moon 10:41 PM CST (2/11) 9:13 AM CST (2/11)
Length of Visible Light 11h 39m
Length of Day
10h 46m
Waning Gibbous, 82% of the Moon is Illuminated
Feb 11
Waning Gibbous
Feb 14
Last Quarter
Feb 21
New
Feb 29
First Quarter
Mar 8
Full

Hourly Weather History & Observations

Time (CST) Temp. Windchill Dew Point Humidity Pressure Visibility Wind Dir Wind Speed Gust Speed Precip Events Conditions
12:15 AM 28.4 °F 16.6 °F 14.0 °F 55% 30.44 in 10.0 mi North 16.1 mph 20.7 mph N/A   Clear
12:35 AM 26.6 °F 15.2 °F 10.4 °F 51% 30.45 in 10.0 mi NNE 13.8 mph 19.6 mph N/A   Clear
12:55 AM 26.6 °F 16.2 °F 12.2 °F 55% 30.44 in 10.0 mi North 11.5 mph - N/A   Clear
1:15 AM 24.8 °F 12.4 °F 10.4 °F 54% 30.45 in 10.0 mi NNE 15.0 mph 20.7 mph N/A   Clear
1:35 AM 24.8 °F 12.9 °F 12.2 °F 59% 30.47 in 10.0 mi North 13.8 mph 21.9 mph N/A   Clear
1:55 AM 24.8 °F 14.0 °F 12.2 °F 59% 30.48 in 10.0 mi North 11.5 mph - N/A   Clear
2:15 AM 24.8 °F 15.3 °F 12.2 °F 59% 30.51 in 10.0 mi North 9.2 mph 18.4 mph N/A   Mostly Cloudy
2:35 AM 23.0 °F 13.1 °F 10.4 °F 59% 30.51 in 10.0 mi North 9.2 mph - N/A   Mostly Cloudy
2:55 AM 23.0 °F 13.1 °F 10.4 °F 59% 30.51 in 10.0 mi NNE 9.2 mph 19.6 mph N/A   Mostly Cloudy
3:15 AM 23.0 °F 10.1 °F 12.2 °F 63% 30.51 in 10.0 mi NNE 15.0 mph 20.7 mph N/A   Scattered Clouds
3:35 AM 23.0 °F 11.1 °F 10.4 °F 59% 30.52 in 10.0 mi North 12.7 mph - N/A   Mostly Cloudy
3:55 AM 23.0 °F 9.6 °F 10.4 °F 59% 30.53 in 10.0 mi North 16.1 mph - N/A   Scattered Clouds
4:15 AM 21.2 °F 7.8 °F 10.4 °F 63% 30.54 in 10.0 mi North 15.0 mph 21.9 mph N/A   Scattered Clouds
4:35 AM 21.2 °F 8.3 °F 10.4 °F 63% 30.55 in 10.0 mi North 13.8 mph 20.7 mph N/A   Mostly Cloudy
4:55 AM 21.2 °F 6.8 °F 8.6 °F 58% 30.56 in 10.0 mi North 17.3 mph 25.3 mph N/A   Overcast
5:15 AM 21.2 °F 7.8 °F 8.6 °F 58% 30.56 in 10.0 mi North 15.0 mph 21.9 mph N/A   Overcast
5:35 AM 21.2 °F 8.3 °F 8.6 °F 58% 30.58 in 10.0 mi North 13.8 mph 20.7 mph N/A   Overcast
5:55 AM 21.2 °F 8.3 °F 8.6 °F 58% 30.58 in 10.0 mi North 13.8 mph 21.9 mph N/A   Overcast
6:15 AM 21.2 °F 6.8 °F 8.6 °F 58% 30.59 in 10.0 mi North 17.3 mph - N/A   Overcast
6:35 AM 21.2 °F 8.3 °F 8.6 °F 58% 30.60 in 10.0 mi North 13.8 mph 19.6 mph N/A   Overcast
6:55 AM 21.2 °F 6.8 °F 8.6 °F 58% 30.62 in 10.0 mi North 17.3 mph 24.2 mph N/A   Overcast
7:15 AM 21.2 °F 8.3 °F 6.8 °F 54% 30.63 in 10.0 mi North 13.8 mph 26.5 mph N/A   Overcast
7:35 AM 21.2 °F 7.3 °F 6.8 °F 54% 30.63 in 10.0 mi NNE 16.1 mph 21.9 mph N/A   Overcast
7:55 AM 19.4 °F 5.5 °F 6.8 °F 58% 30.63 in 10.0 mi NNE 15.0 mph 20.7 mph N/A   Overcast
8:15 AM 19.4 °F 5.5 °F 6.8 °F 58% 30.64 in 10.0 mi North 15.0 mph 25.3 mph N/A   Overcast
8:35 AM 19.4 °F 5.0 °F 6.8 °F 58% 30.67 in 10.0 mi North 16.1 mph 21.9 mph N/A   Overcast
8:55 AM 19.4 °F 5.5 °F 6.8 °F 58% 30.68 in 10.0 mi NNE 15.0 mph 20.7 mph N/A   Overcast
9:35 AM 21.2 °F 7.3 °F 6.8 °F 54% 30.70 in 10.0 mi NNE 16.1 mph 20.7 mph N/A   Overcast
9:55 AM 21.2 °F 10.1 °F 8.6 °F 58% 30.70 in 10.0 mi NNE 10.4 mph 17.3 mph N/A   Overcast
10:15 AM 21.2 °F 10.1 °F 8.6 °F 58% 30.70 in 10.0 mi North 10.4 mph 18.4 mph N/A   Overcast
10:35 AM 21.2 °F 8.3 °F 8.6 °F 58% 30.71 in 10.0 mi NNE 13.8 mph - N/A   Overcast
11:15 AM 21.2 °F 7.8 °F 8.6 °F 58% 30.70 in 10.0 mi North 15.0 mph - N/A   Overcast
11:35 AM 23.0 °F 10.6 °F 8.6 °F 54% 30.71 in 10.0 mi North 13.8 mph - N/A   Overcast
11:55 AM 21.2 °F 7.8 °F 6.8 °F 54% 30.71 in 10.0 mi North 15.0 mph 18.4 mph N/A   Overcast
12:15 PM 23.0 °F 11.1 °F 8.6 °F 54% 30.71 in 10.0 mi North 12.7 mph 16.1 mph N/A   Overcast
12:35 PM 23.0 °F 10.6 °F 8.6 °F 54% 30.70 in 10.0 mi NNE 13.8 mph - N/A   Overcast
12:55 PM 23.0 °F 11.1 °F 8.6 °F 54% 30.67 in 10.0 mi NNE 12.7 mph 20.7 mph N/A   Mostly Cloudy
1:15 PM 24.8 °F 14.0 °F 8.6 °F 50% 30.66 in 10.0 mi North 11.5 mph 23.0 mph N/A   Mostly Cloudy
1:35 PM 24.8 °F 10.7 °F 8.6 °F 50% 30.65 in 10.0 mi NNE 19.6 mph 23.0 mph N/A   Overcast
1:55 PM 26.6 °F 14.3 °F 8.6 °F 47% 30.64 in 10.0 mi North 16.1 mph 21.9 mph N/A   Overcast
2:15 PM 26.6 °F 17.5 °F 8.6 °F 47% 30.63 in 10.0 mi NNE 9.2 mph 17.3 mph N/A   Overcast
2:35 PM 30.2 °F 20.2 °F 10.4 °F 44% 30.63 in 10.0 mi NNE 12.7 mph - N/A   Overcast
2:55 PM 30.2 °F 19.8 °F 10.4 °F 44% 30.63 in 10.0 mi NNE 13.8 mph - N/A   Overcast
3:15 PM 30.2 °F 21.3 °F 10.4 °F 44% 30.62 in 10.0 mi NNE 10.4 mph - N/A   Mostly Cloudy
3:35 PM 30.2 °F 21.3 °F 8.6 °F 40% 30.61 in 10.0 mi NNE 10.4 mph 17.3 mph N/A   Overcast
3:55 PM 30.2 °F 21.3 °F 8.6 °F 40% 30.61 in 10.0 mi NE 10.4 mph 17.3 mph N/A   Scattered Clouds
4:15 PM 32.0 °F 24.2 °F 8.6 °F 38% 30.61 in 10.0 mi NE 9.2 mph 16.1 mph N/A   Clear
4:35 PM 32.0 °F 26.4 °F 8.6 °F 38% 30.61 in 10.0 mi NNE 5.8 mph - N/A   Clear
4:55 PM 32.0 °F 24.2 °F 5.0 °F 32% 30.62 in 10.0 mi NE 9.2 mph - N/A   Clear
5:15 PM 32.0 °F 27.5 °F 6.8 °F 35% 30.63 in 10.0 mi NNE 4.6 mph - N/A   Clear
5:35 PM 30.2 °F 22.6 °F 6.8 °F 37% 30.62 in 10.0 mi NNE 8.1 mph - N/A   Clear
5:55 PM 30.2 °F 21.9 °F 8.6 °F 40% 30.62 in 10.0 mi NNE 9.2 mph - N/A   Clear
6:15 PM 30.2 °F 23.4 °F 8.6 °F 40% 30.61 in 10.0 mi NNE 6.9 mph - N/A   Clear
6:35 PM 28.4 °F 22.2 °F 8.6 °F 43% 30.61 in 10.0 mi NE 5.8 mph - N/A   Clear
6:55 PM 28.4 °F 24.6 °F 8.6 °F 43% 30.61 in 10.0 mi NE 3.5 mph - N/A   Clear
7:15 PM 28.4 °F 24.6 °F 8.6 °F 43% 30.62 in 10.0 mi NE 3.5 mph - N/A   Clear
7:35 PM 28.4 °F - 8.6 °F 43% 30.63 in 10.0 mi Calm Calm - N/A   Clear
7:55 PM 28.4 °F - 8.6 °F 43% 30.64 in 10.0 mi Calm Calm - N/A   Clear
8:15 PM 28.4 °F - 8.6 °F 43% 30.66 in 10.0 mi Calm Calm - N/A   Clear
8:55 PM 26.6 °F 20.0 °F 8.6 °F 47% 30.63 in 10.0 mi NNE 5.8 mph - N/A   Clear
9:15 PM 26.6 °F 20.0 °F 8.6 °F 47% 30.63 in 10.0 mi NE 5.8 mph - N/A   Clear
9:35 PM 24.8 °F 17.9 °F 8.6 °F 50% 30.64 in 10.0 mi NE 5.8 mph - N/A   Clear
9:55 PM 24.8 °F 19.1 °F 10.4 °F 54% 30.64 in 10.0 mi NE 4.6 mph - N/A   Clear
10:15 PM 24.8 °F - 10.4 °F 54% 30.66 in 10.0 mi Calm Calm - N/A   Clear
10:35 PM 23.0 °F - 10.4 °F 59% 30.65 in 10.0 mi Calm Calm - N/A   Clear
10:55 PM 23.0 °F 18.4 °F 8.6 °F 54% 30.65 in 10.0 mi NE 3.5 mph - N/A   Clear
11:15 PM 23.0 °F 18.4 °F 10.4 °F 59% 30.65 in 10.0 mi NNE 3.5 mph - N/A   Clear
11:35 PM 23.0 °F 14.7 °F 10.4 °F 59% 30.63 in 10.0 mi NE 6.9 mph - N/A   Clear